Temp
84 86 79 79 79 79 79 79 78 78 78 78 78 78 77 77 78 78 78 78 77 78 78 77 77 77 77 76 76 76 76 75 75 74 73 73 73 74 75 76 75 81 77
87 88 78 79 79 79 79 78 78 77 77 78 78 78 77 77 77 77 77 78 78 77 77 77 76 76 76 76 76 75 76 75 75 74 72 72 71 73 74 74 75 79 76
87 89 84 79 79 79 79 78 77 77 77 78 79 78 78 78 78 78 78 78 77 77 76 76 75 75 75 75 75 75 75 75 75 73 72 81 80 73 74 75 75 76 76
88 89 88 78 78 78 78 77 77 77 77 78 78 78 78 78 78 79 78 78 77 76 75 75 74 74 74 74 75 75 75 75 74 73 81 82 81 74 74 75 76 76 76
88 89 87 78 78 78 78 77 77 77 77 77 78 78 78 78 79 79 79 78 77 75 75 74 74 74 74 74 74 74 75 74 73 75 80 80 79 79 74 75 77 77 77
88 89 79 77 78 77 77 77 77 77 77 77 78 77 77 77 78 79 79 77 75 75 75 74 74 74 74 74 74 75 75 74 72 81 80 79 78 74 73 74 75 76 76
87 88 84 77 78 77 77 77 77 77 77 77 77 77 77 77 77 77 77 76 75 75 75 75 75 74 74 74 74 74 74 72 79 80 80 79 79 73 74 75 75 76 76
86 86 86 77 77 77 76 76 76 76 77 77 77 77 77 76 76 77 76 75 75 75 74 74 74 74 74 74 74 73 72 71 78 80 80 80 74 72 74 75 75 75 76
86 86 86 85 80 75 75 75 76 76 76 76 76 76 75 74 74 75 75 75 75 74 74 74 74 74 73 73 72 71 70 69 79 80 79 81 70 73 75 76 76 76 76
85 86 86 87 84 81 81 74 74 75 75 75 75 73 72 72 72 72 73 73 73 73 73 73 73 72 71 70 70 69 69 70 80 79 81 79 71 73 75 76 76 76 76
83 84 85 86 86 84 84 78 74 73 73 73 73 70 71 82 79 77 70 70 72 72 72 72 70 70 69 68 68 68 69 81 80 80 80 69 72 74 75 75 75 76 76
82 83 83 84 84 84 83 82 81 81 81 81 80 79 81 79 80 79 71 69 70 70 70 69 69 70 74 79 79 73 80 79 79 78 79 68 72 74 75 75 75 74 74
85 84 83 80 81 80 82 81 82 83 81 81 80 80 80 79 79 79 80 79 80 71 78 77 78 78 76 76 76 78 76 76 78 78 72 68 71 74 75 74 73 73 74
83 84 83 81 77 77 82 80 82 83 81 81 80 80 79 78 77 79 81 78 78 76 76 77 78 76 75 75 75 75 75 75 76 77 71 66 70 72 72 71 71 72 71
82 83 83 80 77 76 78 79 81 82 81 82 79 80 81 79 78 78 77 75 75 77 77 76 76 75 74 74 74 73 72 73 74 76 73 64 66 68 68 69 69 69 69
85 84 84 81 78 77 75 79 81 83 82 81 81 80 80 80 77 74 68 68 74 75 75 75 73 73 73 72 72 72 71 72 73 73 74 67 63 65 65 66 66 67 67
87 87 85 83 82 75 75 80 82 82 81 80 80 80 79 76 73 70 66 68 73 73 73 72 72 72 71 71 70 70 71 72 72 71 71 71 68 61 62 63 63 64 64
86 85 85 83 82 78 78 80 81 81 81 79 80 78 72 71 68 66 68 71 71 71 71 70 68 69 68 68 69 70 70 69 70 70 70 70 68 68 64 59 60 61 61
86 86 82 81 82 81 81 78 79 80 76 72 71 70 69 68 66 66 69 69 70 68 68 68 66 65 64 65 66 68 67 68 68 69 68 67 65 65 66 62 59 60 59
84 84 83 81 81 81 77 75 75 74 71 70 69 68 66 66 69 71 69 68 68 66 66 66 64 63 62 62 64 66 67 67 67 68 68 68 66 63 64 63 63 63 59
82 80 80 79 79 78 72 70 64 66 65 65 64 64 63 64 66 69 68 67 67 65 63 64 63 61 60 61 63 66 66 65 65 66 67 67 64 63 63 63 63 62 62
80 79 78 78 77 76 73 72 70 67 67 66 59 59 60 61 64 67 66 65 64 63 62 61 60 60 60 59 57 58 58 62 65 64 65 63 62 63 62 61 60 60 60
77 77 76 75 75 75 72 73 70 66 62 57 55 54 57 61 64 66 64 64 62 62 59 59 59 58 57 58 57 56 55 54 54 63 61 62 61 60 60 59 58 59 58
76 76 74 73 74 73 73 69 66 65 62 60 57 54 57 61 64 64 63 63 61 61 59 58 59 57 57 54 58 57 56 54 50 50 59 59 59 58 57 57 57 57 57
76 72 71 72 72 71 69 69 69 67 65 59 54 55 57 62 63 62 62 61 60 59 58 57 56 56 56 56 54 53 54 54 53 48 46 52 56 57 57 55 55 56 56
74 70 69 70 70 68 66 70 69 66 59 53 54 54 58 61 60 60 60 60 59 58 57 56 55 54 55 54 54 52 51 49 49 48 46 48 48 52 55 55 54 54 54
MSLP
1010.33 1010.68 1011.51 1011.87 1012.23 1012.73 1012.97 1013.20 1013.41 1013.63 1013.83 1013.93 1014.03 1014.15 1014.31 1014.45 1014.57 1014.70 1014.77 1014.83 1014.99 1015.03 1015.04 1015.07 1014.95 1014.81 1014.71 1014.69 1014.69 1014.73 1014.82 1014.91 1014.99 1014.96 1014.94 1014.88 1014.87 1014.68 1014.46 1014.36 1014.43 1013.98 1014.20
1009.98 1010.60 1011.71 1012.07 1012.42 1012.64 1012.99 1013.29 1013.61 1013.83 1013.96 1014.07 1014.12 1014.30 1014.49 1014.62 1014.76 1014.86 1014.92 1015.01 1015.09 1015.22 1015.18 1015.19 1015.17 1015.08 1015.02 1015.06 1015.08 1015.06 1014.95 1015.02 1015.05 1015.05 1015.11 1014.94 1014.95 1014.84 1014.65 1014.47 1014.45 1014.06 1014.32
1010.06 1010.48 1011.58 1012.14 1012.56 1012.86 1013.04 1013.40 1013.66 1013.95 1014.09 1014.14 1014.26 1014.51 1014.61 1014.71 1014.83 1014.88 1015.01 1015.13 1015.23 1015.39 1015.41 1015.41 1015.33 1015.30 1015.29 1015.27 1015.22 1015.20 1015.10 1015.07 1015.09 1015.11 1015.04 1014.41 1014.48 1015.00 1014.66 1014.59 1014.51 1014.39 1014.35
1010.07 1010.39 1011.06 1012.18 1012.59 1013.00 1013.22 1013.56 1013.78 1014.00 1014.23 1014.33 1014.51 1014.64 1014.73 1014.80 1014.83 1014.93 1015.04 1015.15 1015.33 1015.49 1015.58 1015.63 1015.61 1015.56 1015.61 1015.54 1015.51 1015.41 1015.24 1015.18 1015.20 1015.26 1014.37 1014.33 1014.30 1014.81 1014.97 1014.74 1014.54 1014.36 1014.34
1010.28 1010.45 1010.92 1012.09 1012.61 1013.09 1013.41 1013.66 1013.96 1014.12 1014.27 1014.45 1014.58 1014.70 1014.82 1014.93 1014.93 1014.95 1015.07 1015.25 1015.46 1015.62 1015.70 1015.69 1015.74 1015.71 1015.75 1015.68 1015.63 1015.49 1015.28 1015.20 1015.20 1014.95 1014.45 1014.51 1014.62 1014.37 1014.98 1014.92 1014.55 1014.37 1014.31
1010.41 1010.58 1011.61 1011.90 1012.63 1013.09 1013.52 1013.80 1013.98 1014.24 1014.41 1014.51 1014.63 1014.80 1014.91 1015.00 1015.07 1015.09 1015.12 1015.33 1015.57 1015.68 1015.75 1015.71 1015.74 1015.65 1015.70 1015.63 1015.63 1015.41 1015.25 1015.28 1015.08 1014.39 1014.48 1014.55 1014.69 1014.77 1014.90 1014.89 1014.75 1014.58 1014.36
1010.61 1010.81 1011.58 1012.04 1012.55 1013.07 1013.50 1013.80 1014.10 1014.23 1014.49 1014.65 1014.77 1014.87 1014.95 1015.04 1015.04 1014.98 1015.23 1015.43 1015.70 1015.81 1015.81 1015.70 1015.57 1015.66 1015.70 1015.53 1015.58 1015.41 1015.39 1015.42 1014.85 1014.47 1014.44 1014.48 1014.51 1014.95 1014.72 1014.65 1014.57 1014.46 1014.30
1010.81 1011.08 1011.29 1012.26 1012.61 1013.10 1013.53 1013.75 1013.98 1014.27 1014.43 1014.70 1014.82 1014.98 1015.09 1015.14 1015.08 1014.77 1015.32 1015.59 1015.78 1015.87 1015.81 1015.71 1015.63 1015.67 1015.65 1015.51 1015.52 1015.52 1015.53 1015.48 1014.63 1014.36 1014.41 1014.39 1014.72 1014.94 1014.56 1014.44 1014.28 1014.16 1014.08
1010.79 1011.11 1011.26 1011.82 1012.58 1013.15 1013.52 1013.78 1013.97 1014.15 1014.44 1014.64 1014.86 1015.02 1015.19 1015.34 1015.29 1015.31 1015.46 1015.71 1015.87 1015.94 1015.85 1015.78 1015.78 1015.72 1015.59 1015.65 1015.59 1015.64 1015.57 1015.43 1014.71 1014.43 1014.55 1014.26 1014.90 1014.77 1014.39 1014.18 1014.04 1013.92 1013.75
1010.70 1011.00 1011.34 1011.42 1012.24 1012.74 1013.34 1013.86 1014.08 1014.25 1014.39 1014.65 1014.90 1015.15 1015.36 1015.48 1015.51 1015.62 1015.78 1015.88 1016.02 1016.01 1015.98 1015.94 1015.89 1015.98 1015.92 1015.93 1015.90 1015.93 1015.71 1015.25 1014.66 1014.59 1014.26 1014.51 1014.97 1014.58 1014.19 1014.05 1013.90 1013.83 1013.67
1010.65 1010.86 1011.08 1011.27 1011.80 1012.33 1012.65 1013.56 1014.19 1014.41 1014.54 1014.69 1014.92 1015.18 1015.32 1015.09 1015.27 1015.31 1015.93 1016.11 1016.17 1016.08 1016.08 1016.22 1016.24 1016.31 1016.19 1016.11 1016.05 1015.95 1015.63 1014.93 1014.67 1014.74 1014.38 1015.10 1014.84 1014.44 1014.18 1014.06 1013.89 1013.80 1013.61
1010.13 1010.48 1011.00 1011.22 1011.61 1012.10 1012.59 1013.06 1013.53 1013.79 1014.04 1014.24 1014.47 1014.68 1014.82 1015.09 1015.22 1015.33 1015.77 1016.03 1016.28 1016.33 1016.43 1016.41 1016.36 1016.34 1015.94 1015.61 1015.53 1015.61 1015.24 1015.21 1014.75 1015.04 1014.56 1015.32 1014.83 1014.37 1014.17 1014.00 1013.82 1013.78 1013.73
1009.56 1009.95 1010.68 1011.30 1011.69 1012.05 1012.27 1012.80 1013.08 1013.29 1013.62 1013.94 1014.27 1014.47 1014.71 1015.00 1015.20 1015.24 1015.25 1015.39 1015.59 1016.20 1016.04 1016.14 1015.95 1016.04 1016.16 1016.06 1015.91 1015.69 1015.63 1015.48 1015.03 1015.07 1015.29 1015.53 1014.88 1014.44 1014.18 1014.26 1014.18 1014.07 1013.88
1009.39 1009.61 1010.24 1010.98 1011.52 1011.93 1011.90 1012.48 1012.56 1012.81 1013.31 1013.57 1014.05 1014.30 1014.51 1014.71 1014.99 1015.07 1015.00 1015.47 1015.78 1016.15 1016.18 1016.18 1016.09 1016.24 1016.24 1016.23 1016.22 1015.88 1015.68 1015.57 1015.26 1015.25 1015.68 1015.93 1015.14 1014.85 1014.74 1014.76 1014.65 1014.40 1014.41
1009.02 1009.39 1009.88 1010.58 1011.03 1011.59 1011.71 1012.01 1012.16 1012.54 1012.92 1013.13 1013.66 1013.99 1014.04 1014.36 1014.71 1014.99 1015.66 1016.06 1016.10 1016.24 1016.40 1016.31 1016.32 1016.31 1016.27 1016.29 1016.25 1016.04 1015.82 1015.64 1015.51 1015.49 1015.75 1016.33 1015.83 1015.61 1015.49 1015.35 1015.12 1015.11 1014.89
1008.36 1008.73 1009.41 1009.98 1010.58 1011.00 1011.31 1011.44 1011.78 1012.10 1012.54 1012.99 1013.22 1013.72 1014.00 1014.16 1014.68 1015.52 1016.24 1016.49 1016.32 1016.60 1016.83 1016.73 1016.65 1016.73 1016.49 1016.36 1016.18 1016.11 1015.92 1015.94 1015.80 1015.80 1015.86 1016.48 1016.49 1016.26 1016.09 1015.92 1015.79 1015.61 1015.37
1007.69 1008.06 1008.54 1009.21 1009.98 1010.69 1011.00 1011.02 1011.23 1011.64 1012.32 1012.69 1013.06 1013.56 1013.84 1014.65 1015.20 1015.88 1016.50 1016.56 1016.60 1016.97 1016.96 1016.99 1017.00 1016.91 1016.71 1016.41 1016.07 1016.19 1016.05 1015.98 1016.02 1016.01 1016.14 1016.12 1016.32 1016.78 1016.71 1016.50 1016.33 1016.10 1015.83
1007.23 1007.59 1008.26 1008.81 1009.24 1010.19 1010.44 1010.66 1010.83 1011.20 1011.81 1012.34 1012.81 1013.59 1014.31 1014.92 1015.54 1016.11 1016.40 1016.62 1016.88 1017.03 1017.17 1017.23 1017.34 1016.94 1016.82 1016.55 1016.21 1016.03 1016.08 1016.10 1016.14 1016.17 1016.34 1016.22 1016.45 1016.32 1016.59 1016.85 1016.66 1016.42 1016.16
1006.73 1006.97 1007.72 1008.38 1008.63 1009.15 1009.79 1010.40 1010.85 1011.00 1012.05 1012.91 1013.45 1014.00 1014.46 1015.08 1015.74 1016.18 1016.42 1016.83 1017.12 1017.32 1017.44 1017.43 1017.58 1017.34 1017.03 1016.83 1016.44 1016.16 1016.27 1016.02 1016.20 1016.27 1016.39 1016.50 1016.71 1016.58 1016.58 1016.67 1016.64 1016.32 1016.31
1006.25 1006.44 1006.89 1007.58 1008.08 1008.70 1009.56 1010.40 1011.05 1011.72 1012.39 1012.95 1013.54 1014.15 1014.76 1015.26 1015.45 1015.87 1016.48 1016.95 1017.30 1017.50 1017.54 1017.70 1017.76 1017.72 1017.67 1017.41 1016.79 1016.42 1016.42 1016.19 1016.37 1016.29 1016.39 1016.39 1016.58 1016.68 1016.66 1016.57 1016.30 1015.94 1016.01
1005.90 1006.15 1006.43 1006.96 1007.63 1008.46 1009.47 1010.20 1011.27 1011.69 1012.61 1013.35 1013.99 1014.56 1015.12 1015.49 1015.65 1015.86 1016.58 1017.11 1017.43 1017.49 1017.84 1017.95 1018.00 1017.91 1017.94 1017.84 1016.94 1016.38 1016.29 1016.44 1016.36 1016.19 1016.23 1016.15 1016.51 1016.54 1016.49 1016.43 1016.23 1015.98 1015.57
1005.28 1005.75 1006.15 1006.58 1007.27 1008.10 1009.14 1009.91 1010.47 1011.55 1012.65 1013.54 1014.40 1015.05 1015.55 1015.86 1015.90 1016.01 1016.60 1017.20 1017.48 1017.77 1018.06 1018.26 1018.23 1018.07 1018.27 1018.46 1017.91 1017.23 1016.32 1016.05 1016.11 1016.20 1016.29 1016.36 1016.31 1016.33 1016.30 1016.37 1016.28 1016.01 1015.76
1004.79 1005.21 1005.71 1006.29 1006.93 1007.75 1008.93 1009.55 1010.66 1011.90 1013.08 1014.19 1014.90 1015.49 1015.97 1016.07 1016.09 1016.34 1016.85 1017.31 1017.74 1017.96 1018.29 1018.51 1018.56 1018.50 1018.43 1018.73 1018.76 1018.25 1017.22 1016.72 1016.86 1016.03 1016.10 1016.24 1016.24 1016.36 1016.41 1016.38 1016.20 1015.94 1015.74
1004.14 1004.77 1005.49 1006.15 1006.50 1007.42 1008.44 1009.45 1009.73 1010.12 1011.89 1013.56 1014.48 1015.38 1015.99 1016.19 1016.35 1016.67 1017.13 1017.50 1017.84 1018.11 1018.38 1018.64 1018.86 1018.97 1018.90 1018.83 1018.84 1018.97 1018.74 1018.51 1017.64 1016.45 1016.19 1016.19 1016.58 1016.59 1016.45 1016.27 1016.10 1015.80 1015.54
1003.38 1004.34 1005.16 1005.77 1006.28 1006.94 1008.15 1008.96 1009.49 1010.38 1011.68 1013.28 1014.60 1015.34 1015.82 1016.25 1016.64 1016.92 1017.39 1017.80 1018.06 1018.23 1018.55 1018.84 1019.08 1019.21 1019.29 1019.18 1019.20 1019.02 1018.80 1018.59 1018.44 1018.00 1016.59 1016.06 1016.24 1016.22 1016.23 1016.25 1016.08 1015.64 1015.30
1002.85 1003.99 1004.76 1005.33 1005.99 1006.94 1007.68 1008.28 1008.98 1010.18 1011.62 1013.28 1014.47 1015.17 1015.64 1016.26 1016.84 1017.24 1017.66 1018.02 1018.28 1018.45 1018.73 1019.05 1019.26 1019.40 1019.43 1019.51 1019.51 1019.37 1019.13 1018.83 1018.33 1018.20 1017.40 1016.67 1016.24 1015.90 1015.81 1015.78 1015.67 1015.42 1015.19
Wind_Speed
10 15 16 17 17 14 13 12 11 9 8 7 6 6 6 9 9 8 7 6 7 8 8 5 7 9 11 8 9 8 7 5 6 7 8 8 6 5 3 3 4 8 3
15 16 15 16 16 15 13 12 11 9 8 7 7 9 7 9 8 7 7 6 5 6 7 6 5 7 7 7 8 7 7 6 5 5 6 1 1 4 4 4 4 2 2
15 15 17 16 15 15 14 13 11 9 8 8 10 9 7 7 6 7 5 5 5 6 7 7 7 8 7 8 8 7 5 4 6 3 3 4 3 3 5 5 6 4 2
14 14 15 16 16 15 14 12 11 10 9 9 9 8 5 7 6 7 7 6 5 6 6 6 7 7 7 6 6 5 5 5 4 4 5 4 4 2 7 7 6 7 6
14 13 13 17 17 14 13 12 10 9 10 9 9 6 5 5 4 7 6 6 5 6 5 6 6 5 5 5 5 5 5 3 1 8 5 5 6 4 8 10 9 8 9
14 13 15 18 15 14 13 12 11 10 10 10 9 4 3 1 4 5 5 7 7 5 4 4 3 4 4 5 5 5 8 9 7 5 5 3 6 6 8 9 10 11 11
13 11 15 16 15 15 14 13 11 10 9 9 7 4 3 6 6 6 4 8 6 4 3 3 5 5 5 5 5 5 6 6 7 5 5 5 5 6 8 9 10 11 12
11 11 13 13 14 15 13 13 12 10 9 8 7 4 3 6 9 4 10 7 5 3 3 5 6 5 5 5 6 7 7 7 7 6 6 6 5 8 9 11 12 12 13
11 11 10 12 11 13 12 11 11 11 9 8 7 4 5 6 8 7 9 6 3 3 4 5 5 5 6 6 7 6 5 4 7 5 7 5 9 10 11 11 12 13 14
11 10 10 10 11 12 11 10 9 9 9 8 6 7 6 5 5 7 5 6 4 3 5 6 9 8 9 9 9 7 4 5 6 5 4 5 10 9 10 10 11 12 13
10 11 10 10 11 11 10 10 9 8 8 9 8 7 5 2 4 5 7 4 3 5 6 8 9 8 4 7 7 6 8 3 5 4 4 10 10 10 9 9 10 10 11
13 13 11 10 10 11 8 11 10 9 8 7 7 6 3 3 3 1 4 4 5 6 9 8 7 3 3 4 3 3 4 6 4 5 4 11 10 9 8 7 7 8 10
11 11 13 12 11 10 9 8 6 5 5 5 7 6 5 4 4 4 3 4 3 3 2 2 2 4 6 5 5 5 5 6 4 4 8 10 9 7 6 11 11 10 10
10 12 13 14 12 12 8 8 8 7 7 6 7 7 6 4 4 4 3 3 3 3 3 3 3 4 5 5 6 6 6 5 4 3 7 11 11 12 12 12 11 12 13
11 12 13 14 14 13 12 9 9 8 8 8 7 8 6 5 5 5 4 4 3 2 3 3 3 4 5 6 5 6 6 6 4 2 4 11 13 13 13 14 14 14 14
12 13 14 15 15 14 12 13 10 9 9 8 7 8 8 5 5 5 5 4 4 3 3 3 4 4 4 5 5 5 5 3 2 1 2 7 13 13 13 14 14 13 14
11 11 13 15 15 15 15 13 11 9 9 8 7 10 8 7 8 8 5 4 4 4 4 3 3 3 4 5 5 4 3 2 1 3 3 3 5 11 13 14 14 14 15
11 10 10 11 15 16 15 13 10 10 9 8 7 7 9 10 10 7 5 5 5 4 3 3 4 3 4 5 5 4 3 4 3 3 3 3 4 4 4 11 13 13 15
11 11 10 11 14 16 15 12 11 12 9 7 7 7 10 10 10 8 6 6 5 4 4 3 3 5 6 7 6 5 4 4 4 3 3 3 4 4 4 6 10 9 14
10 10 10 9 12 15 10 11 8 8 7 7 7 7 11 8 10 9 7 7 5 4 4 3 4 4 6 7 6 4 1 3 3 2 2 1 3 4 5 7 8 8 10
10 9 10 11 13 13 12 12 8 9 8 7 6 10 10 9 9 11 7 7 5 6 5 5 3 5 5 8 5 2 1 1 4 4 5 3 2 4 6 6 7 7 7
13 11 11 13 15 15 12 11 7 10 7 7 6 8 8 9 8 9 9 7 7 6 6 5 5 3 4 6 5 3 3 3 1 4 2 3 5 6 6 11 11 10 10
13 13 13 14 16 16 15 11 11 10 9 6 6 5 5 7 9 10 9 8 7 5 5 5 5 6 4 3 6 4 3 2 7 1 3 4 5 6 9 9 10 12 10
15 13 13 15 17 16 18 14 19 12 13 8 8 6 6 7 10 10 10 8 7 5 5 5 4 4 3 4 1 3 3 3 4 5 2 5 5 10 11 9 10 12 11
15 14 15 16 18 19 18 16 13 14 9 10 8 12 9 9 10 10 9 9 8 5 6 5 4 3 3 2 3 3 3 4 4 5 9 6 9 9 9 8 11 8 9
12 15 16 19 18 18 15 18 15 19 17 12 11 9 8 8 8 9 9 7 7 7 6 5 4 3 1 1 2 2 4 4 5 6 9 12 13 11 9 10 7 8 8
Wind_Direction
159 152 163 154 155 155 148 137 129 120 114 116 124 125 143 141 131 123 108 92 66 50 38 24 33 44 47 67 92 100 84 56 37 34 25 20 9 5 345 332 220 247 147
153 158 165 156 157 155 149 139 131 125 120 126 137 115 114 114 116 109 98 100 82 46 40 36 32 37 41 42 55 57 56 48 24 24 16 182 118 358 351 325 319 314 354
154 159 166 160 158 158 153 145 139 130 122 129 117 105 109 120 115 112 121 99 76 45 44 46 43 35 26 22 21 19 12 1 357 23 318 307 348 359 344 320 291 231 259
156 159 165 161 159 158 154 149 146 138 128 130 118 126 136 134 154 147 161 132 99 63 55 53 49 45 38 33 21 12 6 4 15 327 278 335 324 68 322 313 280 245 243
161 162 141 156 152 157 157 152 150 147 139 137 140 161 169 162 167 155 154 124 104 83 72 65 53 40 26 15 357 335 325 316 330 268 350 342 330 30 322 307 295 295 256
169 166 135 147 154 158 159 157 153 150 152 153 148 126 66 283 212 193 173 138 126 107 85 69 33 18 4 1 346 351 345 8 314 343 330 338 287 5 314 304 298 295 297
168 172 158 154 159 157 160 161 158 156 159 167 170 154 96 50 10 220 157 132 128 112 80 36 17 3 348 354 347 359 1 351 316 321 318 320 312 330 307 297 284 280 277
168 174 155 158 161 159 163 165 162 162 163 172 177 177 111 57 23 131 143 134 135 99 31 15 1 353 1 6 13 14 11 356 288 324 323 312 19 317 305 295 287 277 274
178 174 168 171 166 161 164 165 164 162 165 167 172 167 96 74 51 79 117 123 112 53 28 12 353 353 24 29 35 31 19 352 301 342 316 309 19 313 303 300 302 297 294
172 176 176 170 178 179 170 163 164 161 154 152 141 109 94 106 89 84 105 87 76 47 30 16 40 43 57 55 49 30 352 247 352 323 320 16 325 308 308 317 326 325 322
179 180 184 178 183 182 178 160 169 168 161 151 142 119 160 198 175 170 72 73 54 57 47 58 60 54 77 86 56 16 288 351 339 335 329 1 325 318 318 320 325 328 329
186 185 182 190 192 184 180 169 186 173 181 182 179 167 180 164 149 133 105 97 74 82 85 80 70 52 315 359 4 242 348 335 337 321 355 340 326 327 325 326 342 29 13
197 187 188 184 193 195 186 186 184 183 183 181 180 175 150 154 166 179 151 158 160 108 95 143 93 32 17 4 350 339 341 324 325 324 39 355 355 343 8 48 41 25 25
210 201 195 186 187 192 191 192 190 189 184 186 187 179 171 162 158 159 144 90 87 69 86 29 25 24 12 356 343 332 334 327 327 339 70 10 39 46 49 41 27 34 23
213 210 200 196 193 188 198 196 191 200 193 191 183 186 174 164 160 126 106 91 94 70 38 36 14 5 358 344 338 332 337 330 333 4 89 35 48 51 47 39 38 26 18
218 215 201 201 197 194 195 193 191 194 193 188 180 179 176 161 137 126 108 96 93 67 45 29 17 356 345 337 337 337 337 334 349 71 78 84 57 53 48 40 30 22 13
227 228 210 206 194 200 200 193 191 184 186 187 182 175 161 147 135 125 124 127 99 82 63 40 16 346 339 337 340 328 327 310 159 118 91 68 109 67 44 34 23 15 6
242 220 220 211 205 195 202 197 189 181 179 187 168 158 145 139 130 121 128 114 106 90 69 49 5 356 352 345 335 329 307 224 161 111 85 62 54 24 70 26 14 6 357
241 231 217 215 209 202 199 186 184 177 167 160 153 149 140 135 132 131 133 116 107 96 77 52 39 11 3 348 336 328 307 208 178 147 89 44 46 17 355 5 354 343 347
246 234 224 209 204 194 183 176 162 154 144 143 142 142 137 139 142 132 122 119 119 111 88 81 52 42 11 345 323 326 357 193 190 201 324 333 14 356 355 341 336 335 328
244 232 211 194 188 176 171 165 160 156 142 133 122 133 129 129 138 133 126 123 118 99 87 63 65 33 25 353 323 328 190 184 234 237 327 305 352 336 327 334 331 328 328
236 220 206 196 187 180 179 181 158 152 135 126 109 109 117 133 138 131 132 125 116 112 92 70 45 48 39 14 351 299 328 183 164 240 271 331 329 332 333 333 329 326 325
230 215 204 193 185 179 177 159 136 117 119 112 106 106 117 134 134 128 127 123 118 109 99 80 56 35 24 44 21 338 299 322 335 229 266 312 314 327 330 324 316 320 318
223 211 197 194 182 173 171 169 167 154 155 154 142 125 134 136 133 127 127 128 121 116 110 92 72 52 8 14 256 19 335 318 311 304 252 279 326 307 311 314 311 314 312
216 195 189 187 179 168 175 173 168 155 136 133 130 134 138 142 135 131 131 129 123 113 106 104 100 74 48 357 338 326 306 292 264 279 298 310 302 309 304 310 303 294 309
200 187 183 181 176 171 171 176 166 155 143 137 145 143 151 145 139 135 133 126 125 123 123 118 110 92 66 317 287 285 299 305 307 291 293 300 303 309 312 303 296 304 311